Weather in Vostok

Russia / Sakhalin District     48°58′50″N   142°54′59″E
temp.,
°C
wind,
m/s
gust,
m/s
humid.,
%
clouds,
%
prec.,
mm/h
press.,
hPa
HPBL,
m
24 october, sun
sun2423:00+3w34760 0.0 1013104
02:00+3w33785 0.0 101291
05:00+3w23770 0.0 101290
08:00+4w33770 0.0 101189
11:00+9w49690 0.0 1011454
14:00+10wnw711615 0.0 1011631
17:00+9wnw58600 0.0 1013265
20:00+5nw23640 0.0 101787
25 october, mon
mon2523:00+3w22640 0.0 101976
02:00+4sw34670 0.0 1021202
05:00+4ssw45741 0.0 1020256
08:00+4sw44753 0.0 1020164
11:00+7ssw45660 0.0 1020226
14:00+10ssw57670 0.0 1018373
17:00+10ssw45740 0.0 101780
20:00+7sw34884 0.0 101748
26 october, tue
tue2623:00+6wsw44870 0.0 101880
02:00+5wsw34830 0.0 101781
05:00+5wsw33820 0.0 101671
08:00+5wsw34780 0.0 101772
11:00+9wsw33690 0.0 101791
14:00+11ssw34635 0.0 1016300
17:00+10ssw44680 0.0 101551
20:00+7wsw337615 0.0 101533
27 october, wed
wed2723:00+6wsw33730 0.0 101555
02:00+6w33740 0.0 101471
05:00+5nw12715 0.0 101363
08:00+5wnw0071100 0.0 101369
11:00+7sse1168100 0.0 1013121
14:00+8se2274100 0.0 1011191
17:00+8se2285100 0.0 101162
20:00+8ssw228884 0.0 101117
28 october, thu
thu2823:00+7nnw2289100 0.0 101122
02:00+6n449198 0.0 1010122
05:00+6n4594100 0.1 1010159
08:00+6nne5697100 0.8 1009234
11:00+7ne6996100 3.1 1009304
14:00+7e6999100 7.9 1008344
17:00+7ne6998100 15.8 1008428
20:00+7n81197100 7.9 1010555